Temp
-5 -5 -5 -5 -5 -5 -6 -6 -6 -7 -7 -7 -8 -8 -9 -9 -9 -10 -10 -11 -11 -11 -9 -10 -10 -10 -10 -10 -11 -11 -12 -11 -11 -11 -11 -11 -11 -10 -10 -10 -10 -9 -10 -10 -10 -10 -9 -7 -7 -8 -6 -6 -6 -6
-6 -6 -6 -6 -6 -6 -6 -6 -6 -7 -7 -7 -8 -8 -8 -9 -9 -10 -10 -10 -11 -12 -9 -9 -10 -10 -11 -11 -13 -12 -12 -12 -12 -12 -11 -11 -11 -10 -11 -11 -10 -10 -9 -9 -9 -8 -7 -8 -8 -8 -8 -9 -8 -8
-7 -7 -6 -6 -6 -6 -6 -6 -7 -7 -7 -8 -8 -8 -8 -9 -9 -10 -10 -11 -11 -11 -9 -8 -8 -10 -10 -10 -12 -12 -11 -11 -11 -12 -12 -12 -12 -11 -11 -11 -10 -10 -10 -10 -10 -8 -7 -8 -8 -9 -8 -9 -9 -9
-7 -7 -7 -7 -7 -7 -7 -7 -7 -7 -7 -8 -8 -8 -9 -9 -9 -9 -10 -10 -11 -12 -11 -7 -9 -8 -10 -10 -10 -11 -11 -12 -11 -12 -13 -12 -12 -11 -11 -10 -11 -11 -11 -9 -10 -8 -8 -8 -8 -9 -9 -9 -9 -8
-8 -8 -8 -7 -7 -7 -7 -7 -7 -7 -8 -8 -8 -9 -9 -9 -9 -9 -9 -10 -11 -11 -11 -9 -7 -8 -8 -8 -9 -10 -10 -10 -11 -12 -12 -12 -11 -12 -11 -11 -11 -8 -7 -9 -9 -8 -8 -8 -8 -8 -9 -9 -8 -8
-8 -8 -8 -8 -8 -8 -8 -8 -8 -8 -8 -8 -9 -9 -9 -9 -9 -9 -9 -9 -10 -11 -13 -11 -7 -8 -8 -8 -8 -7 -8 -10 -10 -11 -11 -11 -10 -11 -11 -10 -7 -7 -8 -9 -9 -9 -9 -7 -8 -8 -8 -8 -8 -7
-9 -9 -9 -8 -8 -8 -8 -8 -8 -8 -8 -8 -9 -9 -9 -9 -9 -9 -10 -10 -11 -12 -13 -13 -9 -8 -8 -8 -8 -9 -10 -10 -11 -11 -11 -10 -10 -11 -10 -9 -5 -7 -8 -8 -8 -9 -8 -7 -8 -8 -8 -8 -8 -8
-9 -9 -9 -9 -9 -9 -8 -8 -9 -9 -9 -9 -9 -9 -9 -9 -9 -8 -9 -11 -12 -13 -14 -13 -11 -9 -9 -9 -9 -10 -10 -11 -11 -11 -11 -11 -10 -10 -9 -5 -7 -7 -8 -8 -8 -8 -8 -8 -7 -7 -8 -8 -8 -7
-10 -10 -10 -10 -9 -9 -9 -9 -9 -9 -9 -9 -10 -10 -9 -9 -9 -10 -10 -11 -12 -13 -14 -13 -11 -10 -10 -10 -10 -11 -11 -11 -11 -11 -11 -10 -9 -9 -6 -7 -7 -7 -8 -7 -6 -7 -7 -7 -7 -7 -7 -7 -7 -7
-10 -10 -10 -10 -10 -10 -9 -10 -10 -10 -10 -10 -10 -10 -10 -9 -10 -11 -11 -13 -13 -13 -14 -10 -10 -10 -11 -11 -11 -12 -11 -10 -11 -9 -10 -11 -8 -7 -8 -8 -8 -8 -7 -7 -7 -6 -6 -6 -6 -6 -7 -7 -7 -7
-11 -11 -11 -11 -10 -10 -10 -10 -10 -10 -10 -10 -10 -10 -10 -11 -12 -12 -12 -12 -11 -12 -12 -9 -10 -10 -11 -11 -12 -11 -11 -11 -11 -10 -10 -10 -8 -7 -8 -8 -8 -8 -8 -7 -7 -7 -7 -7 -7 -6 -7 -7 -7 -6
-12 -11 -11 -11 -11 -11 -11 -11 -11 -11 -11 -11 -11 -11 -12 -12 -12 -11 -11 -11 -11 -11 -10 -10 -10 -9 -9 -10 -10 -11 -11 -11 -10 -10 -10 -9 -7 -8 -8 -8 -8 -8 -8 -7 -7 -7 -7 -7 -7 -7 -7 -7 -7 -7
-12 -12 -12 -11 -11 -11 -11 -11 -11 -11 -11 -11 -12 -12 -12 -12 -12 -12 -11 -11 -11 -10 -10 -10 -10 -10 -10 -10 -10 -10 -10 -10 -10 -10 -9 -8 -8 -8 -8 -8 -8 -8 -8 -8 -8 -8 -7 -8 -8 -8 -8 -7 -7 -7
-13 -12 -12 -12 -12 -12 -11 -11 -12 -12 -12 -13 -13 -12 -11 -11 -11 -10 -10 -10 -11 -11 -11 -10 -10 -10 -10 -10 -10 -10 -10 -10 -10 -10 -9 -8 -8 -8 -8 -8 -8 -8 -8 -8 -8 -8 -8 -9 -9 -8 -7 -7 -7 -7
-13 -13 -12 -12 -12 -12 -12 -12 -13 -14 -14 -14 -13 -12 -11 -10 -10 -11 -11 -12 -12 -11 -11 -11 -11 -10 -10 -10 -10 -11 -10 -10 -10 -9 -8 -8 -9 -9 -9 -9 -8 -9 -9 -9 -8 -8 -8 -8 -8 -8 -8 -7 -7 -7
-14 -13 -13 -13 -13 -12 -13 -13 -14 -16 -16 -15 -14 -12 -11 -10 -10 -11 -11 -12 -12 -12 -11 -11 -11 -10 -10 -10 -10 -10 -10 -9 -8 -8 -8 -9 -9 -9 -9 -9 -9 -9 -9 -9 -9 -9 -9 -9 -8 -8 -8 -8 -7 -8
-14 -14 -13 -13 -13 -13 -14 -15 -16 -16 -16 -16 -14 -12 -12 -12 -11 -12 -13 -12 -13 -13 -12 -12 -11 -11 -10 -11 -11 -10 -9 -9 -9 -9 -9 -9 -9 -9 -9 -9 -9 -9 -9 -9 -9 -9 -9 -9 -9 -9 -8 -8 -8 -8
-14 -14 -14 -14 -15 -15 -16 -17 -17 -17 -17 -15 -14 -13 -14 -13 -13 -13 -13 -14 -13 -13 -13 -13 -13 -12 -11 -11 -10 -10 -10 -10 -10 -10 -10 -9 -9 -9 -10 -9 -9 -9 -9 -10 -10 -10 -10 -10 -10 -10 -10 -9 -9 -9
-14 -15 -15 -15 -16 -17 -17 -17 -17 -17 -16 -15 -15 -14 -14 -14 -14 -14 -14 -14 -15 -15 -15 -14 -14 -13 -13 -12 -11 -11 -11 -10 -10 -10 -10 -10 -10 -10 -10 -9 -9 -9 -9 -10 -10 -10 -10 -10 -10 -10 -10 -10 -10 -10
-15 -15 -15 -17 -18 -18 -18 -18 -18 -17 -17 -16 -16 -16 -16 -15 -15 -15 -15 -15 -15 -15 -15 -15 -14 -14 -14 -13 -12 -12 -11 -11 -11 -11 -10 -11 -10 -10 -10 -9 -9 -9 -10 -10 -10 -11 -11 -10 -10 -10 -10 -10 -10 -10
-15 -16 -16 -18 -18 -18 -18 -18 -18 -18 -18 -17 -17 -17 -16 -16 -16 -16 -16 -16 -16 -16 -15 -15 -15 -14 -14 -14 -14 -13 -12 -12 -12 -12 -10 -10 -11 -10 -10 -10 -10 -9 -9 -10 -10 -10 -10 -10 -10 -10 -10 -10 -10 -10
-17 -18 -18 -18 -19 -19 -18 -18 -18 -18 -18 -18 -18 -17 -17 -17 -17 -16 -16 -16 -16 -15 -15 -15 -15 -15 -15 -14 -14 -14 -13 -13 -12 -12 -11 -11 -10 -11 -11 -10 -10 -9 -9 -10 -10 -10 -10 -10 -10 -10 -10 -10 -10 -10
-18 -19 -19 -19 -19 -19 -19 -18 -18 -18 -18 -18 -17 -18 -17 -17 -16 -16 -17 -16 -16 -16 -16 -16 -15 -15 -15 -15 -14 -14 -13 -13 -13 -12 -11 -11 -11 -10 -11 -10 -10 -10 -9 -10 -10 -10 -11 -10 -10 -10 -10 -10 -10 -10
-19 -18 -18 -19 -19 -19 -19 -18 -18 -18 -18 -18 -18 -17 -17 -17 -17 -17 -16 -16 -17 -16 -16 -15 -15 -15 -15 -15 -14 -14 -13 -13 -13 -12 -11 -11 -11 -11 -11 -10 -10 -10 -10 -10 -10 -10 -11 -11 -10 -10 -10 -10 -10 -10
-19 -19 -19 -19 -19 -19 -18 -18 -18 -18 -18 -17 -18 -18 -17 -17 -17 -17 -17 -17 -17 -17 -16 -16 -15 -15 -15 -14 -14 -14 -14 -13 -13 -12 -12 -11 -11 -11 -11 -10 -10 -10 -10 -10 -10 -10 -10 -10 -10 -10 -10 -10 -11 -11
-20 -19 -19 -18 -19 -18 -18 -18 -18 -18 -17 -17 -17 -17 -17 -17 -17 -16 -17 -16 -17 -16 -16 -16 -15 -15 -14 -15 -14 -14 -13 -14 -13 -12 -12 -12 -11 -11 -11 -10 -10 -10 -10 -10 -10 -10 -10 -10 -10 -10 -10 -11 -11 -11
-20 -19 -19 -19 -18 -18 -18 -18 -18 -18 -17 -17 -17 -17 -17 -17 -16 -16 -16 -17 -16 -16 -17 -16 -16 -16 -15 -14 -14 -14 -13 -13 -12 -12 -12 -11 -11 -11 -11 -11 -10 -10 -10 -10 -10 -10 -10 -10 -10 -10 -11 -11 -11 -11
-20 -19 -19 -19 -19 -19 -19 -18 -18 -18 -18 -17 -17 -17 -17 -16 -16 -17 -17 -17 -16 -16 -16 -16 -17 -16 -15 -14 -13 -12 -12 -12 -12 -12 -12 -11 -11 -11 -11 -11 -10 -10 -10 -10 -10 -10 -10 -10 -11 -11 -11 -11 -11 -11
-20 -19 -19 -19 -19 -19 -19 -19 -18 -18 -18 -17 -17 -17 -17 -17 -17 -17 -17 -17 -16 -16 -16 -16 -16 -16 -15 -14 -13 -13 -12 -12 -12 -12 -11 -11 -11 -11 -11 -11 -10 -10 -11 -11 -11 -11 -11 -11 -11 -11 -11 -11 -11 -11
-20 -20 -20 -20 -19 -19 -19 -19 -18 -18 -18 -18 -18 -18 -18 -18 -17 -17 -17 -17 -17 -17 -17 -16 -16 -16 -16 -15 -14 -13 -12 -12 -12 -11 -11 -11 -12 -12 -11 -11 -11 -11 -11 -11 -11 -11 -11 -11 -12 -12 -12 -12 -12 -12
-20 -20 -20 -20 -20 -20 -19 -19 -19 -19 -18 -18 -18 -18 -18 -18 -18 -18 -18 -18 -18 -17 -17 -17 -17 -16 -16 -15 -14 -14 -13 -12 -12 -12 -12 -12 -12 -12 -12 -11 -11 -11 -11 -11 -12 -12 -12 -12 -12 -12 -12 -12 -12 -12
-21 -21 -21 -21 -20 -20 -20 -20 -19 -19 -19 -19 -19 -19 -18 -18 -18 -19 -19 -19 -18 -18 -18 -17 -17 -16 -16 -16 -15 -14 -14 -14 -14 -13 -13 -13 -13 -13 -13 -12 -12 -12 -12 -12 -12 -13 -13 -13 -13 -13 -13 -13 -13 -13
-22 -22 -21 -21 -21 -20 -20 -20 -20 -20 -20 -19 -19 -19 -19 -19 -19 -19 -19 -19 -19 -19 -19 -18 -17 -17 -17 -16 -16 -15 -15 -15 -14 -14 -13 -13 -13 -13 -13 -13 -13 -13 -13 -13 -13 -13 -13 -13 -14 -14 -14 -13 -13 -13
Height
2980 2982 2983 2984 2985 2985 2985 2984 2983 2983 2982 2981 2981 2980 2979 2978 2977 2975 2976 2975 2975 2970 2966 2966 2967 2966 2966 2966 2966 2966 2965 2963 2962 2960 2958 2955 2952 2950 2946 2945 2945 2945 2943 2938 2938 2936 2924 2919 2921 2921 2917 2914 2914 2912
2972 2974 2976 2977 2978 2978 2978 2978 2977 2976 2976 2976 2975 2974 2973 2972 2971 2969 2969 2969 2967 2963 2960 2959 2957 2956 2957 2958 2958 2957 2957 2958 2958 2955 2954 2951 2949 2946 2942 2935 2938 2938 2936 2933 2931 2918 2915 2915 2913 2912 2911 2907 2904 2904
2965 2967 2969 2971 2972 2972 2972 2972 2971 2970 2970 2969 2969 2968 2967 2966 2965 2963 2963 2962 2960 2955 2951 2949 2952 2950 2948 2948 2948 2948 2950 2950 2949 2951 2948 2944 2940 2938 2934 2925 2925 2925 2927 2922 2921 2904 2902 2901 2900 2900 2897 2894 2892 2889
2958 2960 2962 2964 2965 2965 2965 2965 2965 2964 2963 2963 2962 2962 2961 2960 2959 2957 2956 2956 2954 2951 2943 2939 2941 2944 2944 2940 2939 2941 2943 2941 2941 2941 2939 2937 2934 2930 2922 2919 2916 2920 2918 2909 2901 2896 2891 2891 2889 2888 2885 2883 2879 2876
2951 2953 2955 2957 2958 2958 2958 2958 2958 2957 2956 2956 2955 2955 2955 2954 2953 2950 2949 2949 2949 2948 2939 2934 2936 2935 2930 2931 2931 2932 2931 2933 2934 2933 2931 2927 2925 2923 2913 2908 2901 2907 2901 2901 2889 2890 2887 2878 2879 2878 2873 2871 2869 2866
2943 2946 2947 2949 2950 2951 2951 2951 2950 2949 2949 2948 2947 2947 2947 2947 2947 2944 2942 2945 2942 2940 2934 2927 2927 2926 2923 2924 2924 2925 2927 2928 2926 2923 2920 2917 2918 2918 2906 2892 2894 2893 2891 2889 2881 2881 2878 2870 2870 2869 2864 2862 2860 2858
2936 2938 2940 2942 2943 2944 2944 2944 2943 2942 2942 2941 2940 2939 2939 2940 2940 2939 2938 2940 2938 2937 2933 2926 2924 2922 2922 2922 2923 2923 2922 2921 2919 2915 2911 2910 2910 2910 2899 2890 2887 2890 2885 2882 2879 2874 2869 2867 2861 2860 2858 2855 2853 2849
2928 2930 2932 2934 2935 2936 2936 2936 2935 2935 2934 2934 2933 2932 2932 2933 2933 2933 2933 2931 2933 2933 2930 2925 2918 2918 2921 2919 2917 2917 2916 2913 2910 2907 2904 2901 2901 2898 2891 2882 2883 2881 2879 2876 2873 2869 2863 2858 2856 2852 2849 2846 2842 2840
2920 2923 2925 2926 2927 2928 2929 2928 2927 2927 2927 2926 2926 2925 2925 2926 2926 2927 2926 2926 2925 2930 2924 2916 2911 2913 2911 2913 2913 2911 2908 2905 2903 2899 2897 2898 2894 2888 2882 2881 2878 2875 2872 2868 2866 2862 2857 2851 2846 2843 2840 2837 2833 2830
2912 2914 2916 2918 2919 2920 2920 2920 2919 2920 2920 2919 2919 2919 2918 2920 2919 2921 2921 2921 2921 2918 2912 2905 2905 2905 2909 2908 2907 2908 2904 2901 2897 2895 2892 2888 2882 2881 2879 2876 2873 2870 2866 2862 2857 2853 2848 2842 2839 2836 2832 2830 2827 2823
2904 2906 2908 2910 2911 2911 2911 2911 2912 2913 2913 2913 2912 2913 2914 2916 2917 2917 2918 2916 2915 2910 2902 2899 2901 2899 2903 2901 2902 2904 2900 2899 2896 2893 2890 2884 2877 2876 2875 2873 2869 2866 2862 2858 2852 2847 2841 2835 2831 2829 2827 2825 2823 2820
2896 2898 2900 2901 2902 2902 2903 2904 2905 2905 2906 2907 2908 2908 2909 2911 2912 2913 2908 2908 2905 2904 2899 2897 2898 2897 2898 2898 2898 2898 2897 2896 2891 2889 2887 2879 2877 2875 2873 2869 2865 2861 2857 2853 2848 2842 2836 2831 2827 2824 2823 2823 2821 2818
2888 2890 2891 2892 2893 2894 2896 2897 2898 2898 2899 2900 2902 2902 2903 2903 2901 2899 2897 2896 2896 2895 2896 2896 2896 2896 2895 2895 2893 2893 2891 2890 2888 2885 2880 2876 2875 2873 2869 2865 2861 2857 2853 2849 2845 2839 2832 2827 2824 2823 2823 2822 2820 2818
2879 2881 2883 2884 2886 2888 2889 2890 2891 2892 2893 2895 2895 2895 2895 2891 2888 2886 2889 2891 2893 2893 2892 2891 2892 2892 2891 2889 2885 2886 2886 2885 2883 2879 2875 2875 2872 2870 2866 2862 2858 2854 2850 2846 2842 2837 2831 2827 2825 2824 2822 2822 2821 2819
2871 2873 2875 2877 2879 2881 2882 2884 2885 2886 2888 2890 2889 2885 2881 2883 2883 2883 2884 2886 2887 2887 2887 2887 2888 2888 2887 2887 2884 2883 2882 2879 2876 2873 2873 2872 2869 2867 2863 2859 2854 2851 2847 2844 2841 2836 2832 2828 2825 2823 2822 2821 2821 2821
2864 2867 2869 2870 2873 2875 2876 2877 2879 2880 2880 2881 2878 2875 2877 2878 2879 2880 2881 2880 2880 2881 2882 2883 2882 2881 2879 2877 2875 2874 2875 2871 2872 2871 2870 2868 2866 2863 2860 2856 2852 2849 2846 2843 2840 2837 2833 2830 2826 2823 2822 2822 2821 2821
2858 2860 2862 2864 2866 2868 2869 2872 2874 2874 2873 2868 2865 2871 2873 2874 2875 2877 2876 2876 2875 2875 2876 2877 2875 2873 2871 2869 2869 2868 2867 2870 2870 2868 2866 2864 2862 2860 2857 2853 2850 2847 2844 2842 2840 2838 2835 2833 2830 2828 2826 2824 2823 2823
2854 2854 2857 2859 2860 2861 2864 2866 2868 2864 2860 2859 2860 2865 2866 2866 2866 2868 2867 2867 2868 2868 2868 2869 2868 2865 2863 2862 2864 2865 2865 2865 2865 2864 2862 2860 2858 2855 2853 2850 2847 2844 2842 2840 2839 2838 2837 2835 2834 2832 2830 2829 2828 2826
2848 2849 2851 2853 2854 2857 2859 2858 2859 2855 2851 2853 2853 2856 2856 2855 2856 2857 2857 2859 2859 2859 2859 2859 2858 2852 2854 2856 2857 2858 2858 2855 2854 2855 2855 2854 2853 2851 2849 2846 2844 2842 2841 2839 2838 2838 2837 2836 2835 2834 2833 2833 2832 2832
2841 2844 2845 2847 2850 2852 2853 2851 2850 2849 2846 2848 2848 2849 2848 2849 2850 2850 2850 2851 2851 2851 2849 2846 2844 2846 2848 2848 2848 2846 2847 2846 2846 2846 2847 2847 2847 2846 2845 2843 2841 2839 2839 2838 2837 2837 2836 2835 2835 2834 2834 2834 2834 2833
2836 2838 2840 2842 2844 2847 2846 2843 2843 2843 2843 2842 2842 2842 2842 2842 2842 2843 2842 2843 2841 2838 2836 2836 2835 2836 2838 2837 2838 2837 2838 2839 2840 2840 2841 2840 2841 2841 2841 2840 2838 2836 2835 2835 2836 2835 2834 2834 2834 2833 2833 2832 2833 2833
2832 2833 2835 2836 2838 2839 2838 2838 2838 2838 2839 2836 2836 2836 2834 2833 2833 2832 2833 2831 2828 2829 2829 2827 2826 2824 2824 2825 2826 2827 2828 2830 2829 2832 2834 2835 2835 2836 2836 2835 2834 2832 2831 2831 2831 2832 2832 2832 2832 2832 2831 2830 2830 2831
2827 2829 2830 2832 2833 2832 2831 2832 2833 2832 2831 2828 2830 2828 2827 2827 2827 2827 2824 2824 2824 2821 2820 2818 2816 2815 2813 2814 2814 2816 2817 2818 2818 2822 2825 2827 2829 2830 2830 2830 2830 2829 2828 2827 2827 2827 2828 2829 2829 2830 2829 2829 2829 2829
2823 2826 2826 2826 2825 2825 2825 2825 2825 2826 2825 2825 2825 2823 2823 2822 2821 2819 2816 2816 2814 2813 2811 2809 2807 2805 2804 2803 2804 2804 2806 2807 2807 2809 2815 2818 2820 2822 2824 2824 2825 2825 2824 2824 2824 2823 2824 2825 2826 2827 2827 2828 2828 2829
2820 2821 2821 2818 2820 2820 2820 2819 2819 2821 2819 2820 2821 2819 2817 2817 2815 2812 2810 2809 2807 2806 2803 2801 2798 2795 2792 2791 2792 2793 2794 2794 2796 2799 2804 2809 2813 2815 2817 2818 2820 2821 2821 2821 2822 2822 2822 2823 2824 2825 2826 2826 2827 2828
2812 2813 2813 2812 2813 2814 2814 2814 2814 2814 2814 2815 2815 2814 2813 2812 2810 2807 2804 2803 2802 2799 2795 2791 2786 2784 2783 2781 2780 2781 2783 2784 2786 2789 2795 2800 2804 2808 2812 2814 2815 2817 2818 2819 2820 2820 2821 2823 2823 2824 2825 2826 2826 2827
2805 2805 2806 2808 2809 2810 2810 2811 2811 2811 2811 2811 2810 2810 2809 2807 2805 2803 2801 2800 2797 2794 2790 2783 2778 2774 2772 2770 2770 2771 2773 2774 2778 2783 2789 2794 2798 2802 2806 2809 2811 2814 2815 2817 2819 2819 2820 2822 2823 2823 2825 2826 2827 2828
2798 2799 2802 2804 2805 2806 2806 2805 2805 2804 2806 2806 2806 2805 2805 2803 2802 2800 2798 2796 2792 2788 2784 2779 2774 2769 2764 2762 2761 2761 2764 2768 2773 2778 2783 2787 2792 2796 2800 2804 2807 2810 2812 2815 2817 2818 2820 2821 2823 2824 2825 2826 2827 2828
2794 2795 2797 2798 2800 2800 2801 2800 2799 2799 2800 2800 2801 2800 2800 2799 2798 2796 2794 2791 2788 2784 2780 2777 2773 2767 2761 2757 2755 2756 2761 2765 2769 2772 2777 2782 2786 2790 2795 2799 2803 2807 2810 2812 2815 2817 2818 2820 2822 2823 2824 2826 2827 2829
2790 2791 2792 2793 2794 2794 2795 2796 2796 2795 2795 2795 2796 2796 2796 2795 2794 2792 2790 2788 2785 2782 2777 2774 2771 2767 2762 2758 2755 2755 2757 2762 2766 2769 2774 2777 2781 2786 2792 2797 2800 2803 2807 2809 2812 2814 2816 2818 2820 2821 2823 2824 2826 2827
2784 2785 2786 2787 2789 2790 2790 2790 2791 2791 2791 2791 2791 2792 2792 2791 2790 2788 2787 2784 2782 2779 2777 2774 2771 2769 2765 2761 2758 2758 2758 2760 2763 2767 2771 2774 2780 2785 2790 2794 2797 2801 2804 2806 2809 2811 2813 2815 2817 2819 2821 2822 2824 2825
2779 2781 2782 2783 2784 2786 2786 2786 2787 2787 2787 2787 2788 2788 2788 2788 2787 2786 2784 2782 2780 2777 2776 2773 2771 2769 2767 2763 2761 2760 2761 2763 2764 2768 2771 2777 2780 2785 2789 2793 2796 2799 2802 2804 2807 2809 2811 2813 2815 2817 2819 2820 2821 2823
2775 2777 2778 2780 2781 2781 2782 2783 2783 2783 2783 2784 2784 2785 2785 2785 2785 2784 2782 2780 2779 2776 2775 2773 2771 2770 2768 2766 2766 2765 2766 2766 2767 2770 2774 2778 2782 2785 2789 2792 2795 2798 2800 2803 2805 2807 2809 2811 2812 2814 2815 2816 2817 2817
Wind_Speed
22 22 21 21 20 19 18 19 19 19 19 18 19 18 19 20 21 24 24 24 26 32 33 34 30 29 27 27 26 24 29 27 13 14 10 13 14 14 14 21 16 19 14 18 20 18 19 24 17 24 27 22 23 23
23 22 22 20 19 19 18 19 19 20 20 19 20 19 19 21 22 24 24 24 27 31 34 33 34 36 35 32 35 36 34 28 17 13 11 13 17 24 31 37 33 24 28 20 19 33 38 41 43 43 44 47 46 42
23 22 21 20 19 19 19 20 20 21 21 21 20 20 20 21 22 24 24 24 27 34 35 22 11 23 21 11 20 24 24 23 29 24 26 28 29 26 28 29 30 32 27 35 37 46 45 46 44 43 38 41 40 45
23 22 21 20 19 19 20 20 21 21 22 22 22 21 20 21 22 25 25 24 27 30 39 15 6 19 11 15 18 29 31 30 28 26 28 31 36 26 36 42 43 39 40 43 48 48 38 35 33 34 36 32 34 34
23 22 21 20 20 20 20 21 21 23 23 23 23 21 20 21 22 26 26 25 23 26 34 39 30 23 14 26 27 18 22 19 21 28 31 35 36 39 46 47 48 35 37 40 44 36 38 41 33 31 33 29 29 30
23 23 22 21 20 20 20 21 22 23 24 24 24 23 21 20 21 26 28 23 19 16 25 36 24 24 24 21 12 13 21 22 24 29 32 34 30 30 32 44 43 39 37 36 40 41 40 35 33 32 28 28 28 31
24 24 22 22 21 21 21 22 24 24 24 25 24 23 22 20 21 23 26 20 16 18 22 19 21 2 2 4 7 12 19 20 24 29 33 34 34 32 42 47 23 29 27 24 23 27 32 30 35 33 28 26 26 28
25 24 23 23 22 22 22 24 26 26 25 24 24 23 22 20 21 21 19 18 14 18 20 12 19 21 18 19 12 9 18 21 24 28 33 34 27 24 33 33 33 26 27 27 25 24 29 32 31 30 31 32 34 35
26 25 24 22 22 22 24 26 26 25 24 23 23 22 22 21 19 15 18 19 24 25 17 22 31 28 13 11 18 23 20 17 17 22 25 22 26 31 32 30 28 28 28 26 24 28 31 34 33 29 27 27 29 31
25 24 23 23 23 26 28 26 25 24 23 21 21 21 21 16 12 10 11 11 13 24 35 40 38 37 31 27 25 16 9 8 10 14 10 14 28 27 24 19 22 25 26 28 33 33 33 32 29 24 21 22 25 26
25 25 25 26 28 30 26 24 23 22 21 21 20 20 17 10 7 7 9 14 10 13 23 29 24 21 17 22 20 9 6 5 7 8 6 8 26 21 21 17 21 25 27 30 30 31 31 32 29 20 14 15 16 19
26 27 27 30 29 25 23 22 21 20 19 19 18 16 14 11 11 10 10 11 14 12 19 22 17 10 8 9 9 7 7 6 7 7 6 7 16 17 17 19 20 23 23 24 24 27 29 26 18 13 10 8 11 15
28 29 28 25 23 21 20 19 18 18 17 17 15 12 8 11 16 12 14 14 12 12 8 6 9 10 11 12 11 8 7 8 7 6 7 10 10 19 20 25 24 24 23 21 22 25 25 15 8 8 5 8 5 12
27 24 22 21 19 18 17 17 16 16 15 14 11 11 10 10 11 22 25 10 19 10 12 9 8 7 10 11 8 6 7 5 5 7 14 9 17 20 25 26 24 22 20 17 18 21 18 11 5 4 2 5 0 8
20 19 18 17 17 16 16 16 16 15 16 13 9 9 16 15 15 8 10 16 18 18 21 22 20 19 19 13 10 8 5 7 7 7 8 15 18 23 24 25 23 21 18 15 16 17 13 9 6 7 5 3 2 3
18 17 17 16 16 16 16 17 16 17 20 17 17 13 9 11 16 19 17 17 16 15 16 19 18 10 11 10 10 9 6 7 11 14 16 21 20 25 26 24 22 20 17 12 13 15 14 9 9 9 5 4 2 7
17 17 16 17 16 15 14 13 17 19 12 16 20 20 22 26 25 18 13 17 19 22 22 16 11 10 9 8 10 11 21 18 14 15 14 17 23 29 27 24 21 18 16 11 11 12 11 12 12 8 2 4 9 14
17 18 17 15 15 13 15 17 18 16 22 29 28 22 20 22 22 23 21 18 24 26 24 21 20 21 17 18 22 22 16 11 16 19 20 24 26 29 25 21 19 16 16 11 8 9 7 6 8 9 9 3 7 16
15 16 16 15 15 16 16 17 21 20 30 29 29 26 24 22 21 24 24 22 20 20 22 25 17 22 27 34 36 34 33 37 31 28 27 27 29 22 18 17 15 14 12 10 8 8 9 8 6 6 4 2 2 3
14 14 16 16 14 15 15 12 19 19 18 17 18 14 16 17 16 16 16 18 21 24 28 32 35 34 32 27 22 24 21 19 20 21 18 15 19 17 15 15 15 13 10 9 7 9 8 8 7 7 7 6 5 4
13 12 14 16 19 19 16 13 15 15 17 20 21 18 21 22 22 21 20 18 25 31 35 37 39 37 35 35 36 35 40 37 35 27 17 17 15 17 19 17 16 15 12 13 11 7 7 9 8 7 8 7 7 7
11 11 13 14 15 20 28 30 25 22 25 29 32 32 32 30 21 14 12 20 26 25 26 30 31 32 34 34 33 34 37 37 32 34 37 27 24 22 20 21 17 15 14 13 14 15 12 8 8 9 8 8 8 8
12 11 10 14 19 17 18 20 22 25 26 23 21 19 18 14 13 12 18 17 19 22 24 26 29 29 30 28 27 31 32 33 37 34 28 29 29 26 21 19 17 15 14 13 13 14 13 12 11 9 7 6 6 6
13 13 18 9 11 9 13 14 17 18 18 16 17 17 18 19 20 22 24 20 21 20 21 24 27 29 30 30 29 28 27 32 33 32 32 28 27 24 19 17 16 14 13 13 12 10 11 10 10 8 7 6 6 5
17 13 11 14 12 12 16 19 20 20 21 21 20 20 21 19 21 21 22 23 24 27 29 31 30 31 32 30 30 31 27 30 31 30 29 27 29 24 22 17 15 13 11 10 8 6 7 7 7 6 6 6 7 6
16 12 10 7 13 15 17 17 17 13 8 8 9 9 12 13 15 9 16 13 13 19 22 25 26 27 27 27 28 22 20 26 29 29 28 29 28 25 18 15 14 12 11 9 8 7 6 6 6 5 5 6 6 6
20 11 13 19 17 13 12 15 16 14 10 13 14 13 14 9 8 11 9 17 20 20 23 25 24 24 26 22 24 24 20 25 28 26 26 28 25 20 19 17 14 13 13 10 9 8 7 6 5 5 4 5 5 5
13 15 20 21 21 20 20 19 23 26 20 18 17 15 7 6 11 15 19 19 20 20 20 23 24 25 19 16 17 18 19 23 26 27 29 25 22 23 23 20 19 17 15 13 11 9 8 7 7 6 5 4 4 4
17 16 16 23 21 20 19 16 18 18 18 16 15 15 15 16 18 20 21 21 21 23 21 22 16 16 17 11 7 14 17 19 22 25 26 24 28 25 25 22 20 19 17 15 14 11 10 9 8 8 7 7 6 5
21 21 19 20 20 18 17 17 18 14 15 16 17 16 14 15 18 19 21 20 19 19 19 20 18 16 12 11 9 13 23 24 24 20 23 28 32 26 23 21 19 18 17 16 14 13 11 11 11 10 10 9 9 8
17 17 18 19 17 14 16 16 15 16 17 15 14 13 13 13 15 16 16 15 14 15 15 15 14 10 8 5 8 4 6 8 12 16 23 22 24 24 21 19 17 16 15 15 14 13 13 12 12 11 11 10 10 9
15 14 16 15 15 15 15 14 12 9 11 11 11 11 11 11 11 10 12 12 14 13 13 12 13 9 4 10 12 13 9 5 7 16 23 22 20 19 17 16 15 15 14 14 13 13 12 12 12 12 12 11 12 12
12 13 13 12 10 9 10 12 10 11 12 12 13 12 10 10 9 9 10 11 12 12 11 10 9 8 3 4 5 8 9 8 12 17 20 22 19 18 17 16 15 14 14 14 13 13 13 12 12 13 14 15 16 17
Wind_Direction
252 250 251 257 266 274 281 283 285 286 286 285 282 279 278 277 274 274 278 276 276 278 286 285 287 280 281 279 280 285 292 299 287 268 263 271 268 262 252 265 270 270 249 244 240 246 264 289 278 244 293 295 288 274
249 248 251 257 264 272 278 281 283 285 286 285 283 281 279 277 275 275 279 278 277 272 287 292 292 290 283 278 272 271 269 269 263 258 259 281 275 274 280 281 278 262 247 255 246 254 271 278 275 280 282 282 282 276
248 247 251 257 264 272 277 281 283 286 287 285 283 280 279 278 277 277 277 277 278 281 293 288 308 291 276 253 282 259 266 274 283 293 280 277 274 280 273 277 280 281 279 268 275 285 295 299 296 292 291 285 279 274
245 247 251 257 265 273 278 282 285 287 286 285 283 281 278 277 277 277 277 278 278 286 291 309 238 305 297 228 253 287 279 270 274 268 267 268 271 276 276 281 279 281 283 285 279 297 307 303 304 304 301 292 282 274
244 247 251 258 267 273 277 282 286 288 287 285 283 279 277 276 276 276 278 279 281 275 280 288 298 312 264 250 258 257 267 254 263 264 261 263 272 276 284 286 280 294 292 283 286 308 302 300 303 307 289 280 280 280
244 248 253 259 267 272 278 283 287 287 287 284 282 280 276 272 273 275 280 283 281 278 281 294 304 312 263 267 262 264 254 260 263 264 268 271 276 275 272 278 304 305 304 302 294 305 297 291 301 311 290 281 278 276
244 249 255 261 266 273 280 287 289 289 285 282 280 278 277 273 270 272 275 282 278 283 282 296 306 268 177 197 288 264 272 277 271 266 264 274 279 270 266 278 327 312 303 298 293 293 289 298 295 293 293 285 283 277
246 250 254 259 265 272 280 288 288 286 284 281 279 277 276 274 271 273 290 279 262 257 275 268 270 277 287 293 286 285 298 296 276 267 272 271 281 261 265 297 305 304 308 307 300 298 301 305 303 296 287 285 283 285
247 250 253 259 265 273 284 286 284 282 280 279 278 277 278 276 279 265 258 255 249 236 251 255 267 286 285 292 295 305 310 287 283 265 260 257 262 262 288 299 303 304 303 304 308 309 306 305 305 300 288 285 288 291
245 248 252 257 268 281 285 282 279 277 275 273 273 275 278 280 267 258 249 254 248 245 246 263 270 270 282 284 286 303 286 276 272 288 282 261 274 300 306 306 309 307 312 315 313 312 310 308 310 307 290 285 290 300
243 245 251 260 273 282 279 275 273 271 270 268 268 266 269 260 206 217 214 219 228 247 261 280 284 288 277 266 265 260 255 256 268 284 263 263 296 320 322 314 314 315 314 311 312 313 313 312 314 309 296 289 298 303
240 249 256 270 275 272 269 268 266 265 265 263 262 264 261 242 210 216 219 214 224 245 255 275 288 268 264 253 236 229 244 245 246 261 263 266 312 332 327 330 323 320 319 318 318 319 320 317 310 303 304 297 315 326
246 256 265 267 265 263 263 262 261 260 259 257 253 246 235 219 213 214 210 204 206 232 264 297 286 277 272 253 224 209 226 239 263 242 248 276 328 328 329 334 327 325 320 320 321 330 335 330 309 307 295 324 325 333
254 256 258 257 257 256 257 257 254 250 251 248 240 225 217 220 218 228 228 238 234 219 220 240 251 271 271 247 204 218 226 240 243 249 270 304 326 333 332 329 327 326 322 321 326 343 343 332 298 325 296 347 17 346
249 247 246 249 251 252 253 251 250 245 243 234 222 227 227 226 226 222 216 230 234 236 245 255 267 264 267 261 261 218 220 231 228 247 282 316 324 334 335 330 330 331 328 322 334 352 349 346 331 291 272 270 79 17
238 242 249 254 259 256 250 242 234 230 243 236 228 224 226 230 241 244 239 259 265 254 248 252 249 248 246 226 201 202 231 239 273 291 302 309 308 322 331 329 326 329 328 323 338 356 10 358 1 14 30 320 220 134
238 247 251 252 249 244 241 223 222 231 236 235 245 255 252 256 260 260 254 239 257 266 270 271 251 249 241 237 228 234 253 279 299 311 295 290 305 316 320 322 323 321 325 312 327 339 360 11 19 13 12 98 107 151
242 243 242 239 241 237 223 226 225 238 246 259 264 273 270 269 266 258 258 257 259 261 265 258 259 244 239 247 251 258 264 277 296 293 278 284 298 311 312 312 319 316 320 305 299 309 323 346 351 11 34 59 134 136
235 239 240 236 233 228 230 244 241 255 262 271 279 287 284 277 268 264 258 251 251 253 257 259 255 255 257 259 260 265 262 273 276 262 266 274 292 298 304 310 317 311 315 312 287 290 304 314 337 356 340 339 117 140
243 241 237 225 213 222 227 244 254 257 266 278 277 278 277 280 273 266 263 251 249 255 260 258 257 257 256 247 246 250 245 248 257 259 261 276 282 287 297 304 313 309 287 298 284 268 285 300 310 320 314 312 320 285
242 235 223 213 212 220 240 249 249 266 275 273 285 287 290 289 284 287 275 269 262 259 262 260 264 266 264 266 264 258 257 264 268 271 253 247 260 284 302 299 301 306 290 265 264 271 265 265 272 286 293 287 277 264
233 217 218 215 220 237 240 239 249 259 269 276 281 290 287 286 288 279 274 262 262 270 272 270 271 271 270 270 269 264 262 257 260 255 259 257 257 277 285 283 285 296 299 288 268 255 251 260 267 278 272 270 272 268
211 220 234 231 229 234 252 254 258 261 261 272 295 290 291 304 297 287 288 289 287 280 278 272 268 270 276 276 269 263 262 260 262 258 257 259 256 257 261 274 277 284 290 288 277 257 246 247 257 267 256 248 249 247
203 214 222 238 223 232 245 249 264 267 266 275 280 284 302 297 298 295 293 295 285 285 279 274 273 274 275 276 268 272 263 251 258 250 245 250 246 240 248 261 265 271 278 284 281 257 233 239 243 244 243 233 220 211
207 218 223 230 225 236 251 268 269 262 265 281 276 283 283 289 285 290 290 281 280 283 286 286 284 284 286 279 267 270 257 244 252 246 232 234 236 234 237 244 251 257 260 266 257 225 227 235 225 219 222 218 213 210
215 220 215 220 226 239 255 262 275 284 284 264 251 275 281 282 281 262 272 275 292 302 307 305 295 282 275 277 280 265 244 243 244 232 223 225 226 226 229 239 243 241 239 237 229 211 207 211 207 203 198 191 188 188
223 220 223 226 233 238 254 267 277 258 255 274 282 281 289 266 254 259 285 308 309 309 315 324 314 302 289 271 261 267 259 233 226 224 212 216 219 217 223 227 223 219 218 211 204 187 180 186 186 184 179 172 171 172
225 221 236 246 248 258 268 281 267 255 260 261 265 256 242 254 276 297 308 311 321 323 329 335 320 319 311 279 262 250 227 221 218 213 210 206 211 218 217 217 215 207 207 204 199 189 181 181 180 179 178 173 169 164
231 242 243 247 248 261 278 283 275 265 259 256 259 250 264 278 287 297 304 312 316 324 330 332 321 332 328 326 294 193 201 208 212 209 201 201 209 211 208 208 209 206 204 203 204 204 204 205 204 203 202 203 205 210
240 246 253 259 264 267 264 253 256 252 258 260 260 257 267 282 290 295 303 311 317 323 328 333 340 345 346 8 359 205 199 204 203 207 215 231 221 199 193 197 199 200 204 207 211 213 213 214 214 215 217 219 219 219
245 247 251 252 252 253 251 253 258 253 246 243 247 259 275 288 298 305 314 316 317 324 326 328 330 343 348 37 56 91 156 173 203 191 190 174 169 171 179 184 187 194 201 206 208 210 210 212 213 212 211 211 215 218
238 231 233 239 243 238 240 246 227 235 245 251 259 264 268 282 298 315 322 324 321 323 325 327 324 337 15 53 59 73 84 120 162 188 185 172 165 170 176 183 190 197 202 205 206 206 206 208 213 218 221 226 232 237
224 224 225 223 231 249 259 240 240 247 247 249 249 250 259 284 297 310 323 324 319 326 330 333 330 334 9 86 88 93 102 112 139 151 167 179 170 167 177 184 190 197 203 207 209 212 216 222 228 236 244 250 254 254